Change the Weather History Date:

Thursday, September 5, 2013

  Actual Average Record
Temperature  
Mean Temperature 82 °F -  
Max Temperature 91 °F 89 °F 102 °F (1951)
Min Temperature 72 °F 67 °F 58 °F (1934)
Cooling Degree Days 16    
Growing Degree Days 32 (Base 50)    
Moisture  
Dew Point 69 °F    
Average Humidity 71    
Maximum Humidity 93    
Minimum Humidity 41    
Precipitation  
Precipitation 0.00 in - - ()
Sea Level Pressure  
Sea Level Pressure 30.08 in    
Wind  
Wind Speed 2 mph (NE)    
Max Wind Speed 6 mph    
Max Gust Speed -    
Visibility 9 miles    
Events      
Averages and records for this station are not official NWS values.
T = Trace of Precipitation, MM = Missing Value Source: NWS Daily Summary

Daily Weather History Graph

Daily Weather History Graph

Search for Another Location

Airport or City:

Trip Planner

Search our weather history database for the weather conditions in past years. The results will help you decide how hot, cold, wet, or windy it might be!

Date:

Astronomy

Sep. 05, 2013 Rise Set
Actual Time 6:24 AM CDT 7:05 PM CDT
Civil Twilight 5:59 AM CDT 7:29 PM CDT
Nautical Twilight 5:30 AM CDT 7:58 PM CDT
Astronomical Twilight 5:00 AM CDT 8:28 PM CDT
Moon 6:31 AM CDT (9/5) 7:02 PM CDT (9/5)
Length of Visible Light 13h 29m
Length of Day
12h 40m
New Moon, 0% of the Moon is Illuminated
Sep 5
New Moon
Sep 12
First Quarter
Sep 19
Full
Sep 26
Last Quarter
Oct 4
New

Hourly Weather History & Observations

Time (CDT) Temp. Heat Index Dew Point Humidity Pressure Visibility Wind Dir Wind Speed Gust Speed Precip Events Conditions
12:56 AM 75.0 °F - 72.0 °F 90% 30.06 in 10.0 mi Calm Calm - N/A   Overcast
1:56 AM 73.0 °F - 71.1 °F 93% 30.05 in 7.0 mi Calm Calm - N/A   Clear
2:56 AM 73.0 °F - 71.1 °F 93% 30.05 in 5.0 mi Calm Calm - N/A   Clear
3:56 AM 72.0 °F - 70.0 °F 93% 30.04 in 6.0 mi Calm Calm - N/A   Clear
4:56 AM 72.0 °F - 70.0 °F 93% 30.06 in 6.0 mi SE 3.5 mph - N/A   Clear
5:56 AM 72.0 °F - 70.0 °F 93% 30.07 in 8.0 mi Calm Calm - N/A   Clear
6:56 AM 72.0 °F - 70.0 °F 93% 30.08 in 6.0 mi North 3.5 mph - N/A   Clear
7:56 AM 77.0 °F - 71.1 °F 82% 30.10 in 10.0 mi Calm Calm - N/A   Clear
8:56 AM 78.1 °F - 70.0 °F 76% 30.12 in 10.0 mi Calm Calm - N/A   Overcast
9:56 AM 82.9 °F 85.8 °F 68.0 °F 60% 30.13 in 10.0 mi East 4.6 mph - N/A   Overcast
10:56 AM 88.0 °F 90.3 °F 66.0 °F 48% 30.12 in 10.0 mi East 4.6 mph - N/A   Clear
11:56 AM 89.1 °F 91.3 °F 66.0 °F 46% 30.12 in 10.0 mi East 3.5 mph - N/A   Mostly Cloudy
12:56 PM 89.1 °F 91.0 °F 64.9 °F 45% 30.11 in 10.0 mi Calm Calm - N/A   Mostly Cloudy
1:56 PM 91.9 °F 94.1 °F 64.9 °F 41% 30.08 in 10.0 mi North 5.8 mph - N/A   Scattered Clouds
2:56 PM 91.9 °F 94.5 °F 66.0 °F 42% 30.06 in 10.0 mi Variable 5.8 mph - N/A   Mostly Cloudy
3:56 PM 91.9 °F 94.5 °F 66.0 °F 42% 30.05 in 10.0 mi North 5.8 mph - N/A   Partly Cloudy
4:56 PM 90.0 °F 92.8 °F 66.9 °F 46% 30.05 in 10.0 mi North 5.8 mph - N/A   Clear
5:56 PM 88.0 °F 90.7 °F 66.9 °F 49% 30.04 in 10.0 mi North 5.8 mph - N/A   Clear
6:56 PM 84.9 °F 88.8 °F 69.1 °F 59% 30.05 in 10.0 mi Calm Calm - N/A   Clear
7:56 PM 78.1 °F - 71.1 °F 79% 30.07 in 10.0 mi Calm Calm - N/A   Clear
8:56 PM 75.9 °F - 71.1 °F 85% 30.09 in 10.0 mi Calm Calm - N/A   Clear
9:56 PM 75.9 °F - 70.0 °F 82% 30.09 in 10.0 mi North 4.6 mph - N/A   Clear
10:56 PM 72.0 °F - 69.1 °F 91% 30.09 in 10.0 mi Calm Calm - N/A   Clear
11:56 PM 73.0 °F - 66.9 °F 81% 30.09 in 10.0 mi Calm Calm - N/A   Clear